Date,TemperatureHighF,TemperatureAvgF,TemperatureLowF,DewpointHighF,DewpointAvgF,DewpointLowF,HumidityHigh,HumidityAvg,HumidityLow,PressureMaxIn,PressureMinIn,WindSpeedMaxMPH,WindSpeedAvgMPH,GustSpeedMaxMPH,PrecipitationSumIn
2013-1-1,45.1,42.9,39.7,44.9,42.7,39.5,99,99,99,29.83,29.74,4,1,4,0.31
2013-1-2,36.7,36.2,36.0,36.4,36.0,35.7,99,99,99,29.87,29.85,3,1,4,0.34
2013-1-3,32.2,31.3,30.6,28.9,28.0,26.7,92,87,81,30.02,30.00,6,4,9,0.34
2013-1-4,43.3,34.2,25.0,30.4,24.5,20.8,90,69,42,30.11,30.00,17,4,18,0.34
2013-1-5,48.7,34.2,19.9,33.5,26.3,19.5,99,75,42,30.12,29.96,4,2,8,0.00
2013-1-6,42.1,37.9,33.8,41.3,35.9,32.2,99,93,73,29.99,29.85,13,3,24,0.00
2013-1-7,54.0,38.0,25.5,35.4,29.7,25.3,99,74,41,30.12,29.98,10,3,12,0.00
2013-1-8,55.6,36.5,23.5,39.7,32.1,23.3,99,86,50,30.16,30.06,5,2,9,0.00
2013-1-9,51.1,43.1,32.7,50.8,42.8,32.5,99,99,99,30.22,30.10,4,1,4,0.00
2013-1-10,65.8,53.9,43.7,60.2,51.5,43.4,99,92,76,30.24,30.07,22,4,22,0.00
2013-1-11,56.3,53.3,51.3,56.0,53.1,51.0,99,99,99,30.08,29.90,14,2,27,0.06
2013-1-12,75.6,58.9,51.1,68.7,57.5,50.8,99,95,71,29.96,29.86,11,2,15,0.01
2013-1-13,71.1,61.2,49.6,60.4,56.8,49.4,99,87,65,29.89,29.81,16,4,24,0.05
2013-1-14,58.3,52.9,44.4,58.0,52.6,44.2,99,99,99,29.98,29.83,9,1,9,1.72
2013-1-15,53.1,48.8,45.1,52.8,48.5,44.9,99,99,99,29.91,29.77,4,1,8,1.35
2013-1-16,58.5,51.7,48.6,58.2,51.5,48.3,99,99,99,29.80,29.71,4,1,7,0.37
2013-1-17,50.5,42.6,33.4,50.3,42.3,31.9,99,99,94,29.98,29.61,14,3,23,1.36
2013-1-18,48.0,34.5,27.3,32.3,28.8,25.0,99,82,43,30.22,30.01,8,3,13,0.01
2013-1-19,54.3,34.9,23.7,37.0,30.1,23.5,99,85,47,30.17,29.92,4,1,7,0.01
2013-1-20,57.4,39.6,26.6,41.7,32.1,26.4,99,78,38,29.92,29.83,10,3,17,0.00
2013-1-21,51.8,36.2,25.2,37.0,24.7,13.2,99,68,38,29.86,29.75,22,6,30,0.00
2013-1-22,29.8,24.8,19.6,13.6,5.2,-0.9,55,43,27,29.95,29.80,20,10,27,0.00
2013-1-23,28.0,26.3,25.7,25.4,6.8,1.8,92,46,34,29.93,29.81,7,6,8,0.00
2013-1-24,45.0,34.0,21.0,33.5,18.9,5.4,72,55,32,30.08,29.76,24,8,28,0.00
2013-1-25,31.1,26.2,21.6,30.9,18.8,5.4,99,76,46,30.10,29.80,7,2,8,0.01
2013-1-26,48.0,34.4,26.1,38.4,31.2,7.8,99,90,35,30.07,29.85,8,2,9,0.04
2013-1-27,46.2,33.9,21.7,36.3,29.8,21.5,99,86,67,30.19,30.06,8,2,8,0.01
2013-1-28,68.5,46.3,31.1,53.5,42.2,30.9,99,87,57,30.14,29.98,13,2,23,0.00
2013-1-29,72.1,55.3,40.8,57.5,50.8,40.6,99,87,57,30.00,29.81,14,4,95,0.00
2013-1-30,57.2,55.1,44.1,56.9,54.8,42.1,99,99,91,29.81,29.32,16,2,16,1.00
2013-1-31,41.2,34.2,28.4,37.9,24.3,19.8,90,68,47,29.75,29.39,27,8,30,0.01